Temp
14 14 14 14 14 14 14 14 14 14 14 14 13 13 13 13 12 12 11 11 11 10 10 10 10 9 9 9 9 8 8 8 8 7 7 7 7 7 6 6 6 6 6 6 6 6 5 5 5 5 5 4 4 4 4 4 3 3 3 3 3 3 3 3 2 2 2 2 2
14 14 15 15 15 15 14 14 14 14 13 13 14 14 13 13 12 11 11 10 10 10 10 10 9 9 9 9 8 8 8 8 7 7 7 7 7 6 6 6 6 6 6 6 6 5 5 5 5 5 4 4 4 4 4 4 3 3 3 3 3 3 3 2 2 2 2 2 2
14 14 14 14 14 14 14 14 13 13 13 13 13 13 13 12 12 11 11 10 10 10 10 9 9 9 9 8 8 8 8 7 7 7 7 7 6 6 6 6 6 6 6 5 5 5 5 5 5 4 4 4 4 4 4 3 3 3 3 3 3 3 2 2 2 2 2 2 2
14 14 14 14 14 14 14 14 13 13 13 13 12 12 12 11 11 11 10 10 10 10 9 9 9 9 8 8 8 8 7 7 7 7 6 6 6 6 6 6 6 5 5 5 5 5 5 5 4 4 4 4 4 4 3 3 3 3 3 3 3 3 2 2 2 2 2 2 2
14 14 14 15 15 15 14 14 14 13 13 12 12 11 11 11 11 11 10 10 10 9 9 9 9 8 8 8 8 7 7 7 7 6 6 6 6 6 6 5 5 5 5 5 5 5 5 4 4 4 4 4 4 3 3 3 3 3 3 3 3 2 2 2 2 2 2 2 2
13 14 14 15 15 15 14 14 13 13 13 12 12 11 11 11 10 10 10 10 9 9 9 9 8 8 8 8 7 7 7 7 6 6 6 6 6 5 5 5 5 5 5 5 5 5 4 4 4 4 4 4 3 3 3 3 3 3 3 3 3 2 2 2 2 2 2 2 1
13 14 14 14 14 14 14 13 13 13 13 12 12 11 11 10 10 10 10 9 9 9 9 8 8 8 8 7 7 7 7 6 6 6 6 6 5 5 5 5 5 5 5 5 5 4 4 4 4 4 4 3 3 3 3 3 3 3 3 3 2 2 2 2 2 2 1 1 1
13 14 14 14 14 14 13 13 13 13 12 12 12 11 11 10 10 10 9 9 9 8 8 8 8 7 7 7 7 7 6 6 6 6 6 5 5 5 5 5 5 5 5 5 4 4 4 4 4 4 3 3 3 3 3 3 3 3 2 2 2 2 2 2 2 1 1 1 1
13 13 14 14 13 13 13 13 13 13 12 12 11 11 10 10 10 9 9 9 8 8 8 8 7 7 7 7 6 6 6 6 6 6 5 5 5 5 5 5 5 5 4 4 4 4 4 4 4 3 3 3 3 3 3 3 3 2 2 2 2 2 2 1 1 1 1 1 1
12 13 13 13 13 12 12 12 12 12 12 11 11 10 10 10 9 9 9 8 8 8 8 7 7 7 7 6 6 6 6 6 5 5 5 5 5 5 5 5 5 4 4 4 4 4 4 4 3 3 3 3 3 3 3 2 2 2 2 2 2 1 1 1 1 1 1 1 1
13 13 13 13 12 12 12 12 11 11 11 11 10 10 9 9 9 9 8 8 8 8 7 7 7 7 6 6 6 6 6 5 5 5 5 5 5 5 5 5 4 4 4 4 4 4 3 3 3 3 3 3 3 3 2 2 2 2 2 1 1 1 1 1 1 1 1 1 1
12 12 12 12 12 12 11 11 11 11 11 10 10 9 9 9 9 8 8 8 8 7 7 7 7 6 6 6 6 6 5 5 5 5 5 5 5 5 5 4 4 4 4 4 4 3 3 3 3 3 3 3 3 2 2 2 2 2 1 1 1 1 1 1 1 1 1 1 1
12 12 12 12 11 11 11 11 11 10 10 10 10 9 9 8 8 8 8 8 7 7 7 7 6 6 6 6 6 5 5 5 5 5 5 5 5 5 4 4 4 4 4 3 3 3 3 3 3 3 3 3 2 2 2 2 1 1 1 1 1 1 1 1 1 1 1 1 0
12 12 12 11 11 11 11 10 10 10 10 10 9 9 9 8 8 8 7 7 7 7 7 6 6 6 6 6 5 5 5 5 5 5 5 5 5 4 4 4 4 4 3 3 3 3 3 3 3 3 2 2 2 2 2 1 1 1 1 1 1 1 1 1 1 1 0 0 0
11 11 11 11 11 10 10 10 10 10 9 9 9 9 8 8 8 7 7 7 7 6 6 6 6 6 6 5 5 5 5 5 5 5 5 4 4 4 4 4 4 3 3 3 3 3 3 2 2 2 2 2 2 2 1 1 1 1 1 1 1 1 1 0 0 0 0 0 0
11 11 11 11 10 10 10 10 9 9 9 9 9 8 8 8 7 7 7 7 6 6 6 6 6 5 5 5 5 5 5 5 5 5 5 4 4 4 4 4 3 3 3 3 3 3 3 2 2 2 2 2 1 1 1 1 1 1 1 1 0 0 0 0 0 0 0 0 -0
11 11 10 10 10 10 9 9 9 9 9 9 8 8 8 7 7 7 7 6 6 6 6 5 5 5 5 5 5 5 5 5 5 4 4 4 4 4 3 3 3 3 3 3 3 3 2 2 2 2 2 1 1 1 1 1 1 0 0 0 0 0 0 0 0 0 -0 -0 -0
10 10 10 10 10 9 9 9 9 9 9 8 8 8 7 7 7 7 6 6 6 6 5 5 5 5 5 5 5 5 5 5 4 4 4 4 4 3 3 3 3 3 3 3 2 2 2 2 2 2 1 1 1 1 1 0 0 0 0 0 0 0 0 -0 -0 -0 -0 -0 -0
10 10 10 9 9 9 9 9 9 8 8 8 8 7 7 7 6 6 6 6 6 5 5 5 5 5 5 5 5 5 4 4 4 4 4 3 3 3 3 3 3 3 2 2 2 2 2 2 2 2 1 1 1 1 0 0 0 0 0 0 -0 -0 -0 -0 -0 -0 -0 -0 -0
10 9 9 9 9 9 9 9 8 8 8 8 7 7 7 6 6 6 6 6 5 5 5 5 5 5 5 5 4 4 4 4 4 3 3 3 3 3 3 3 3 2 2 2 2 2 2 2 1 1 1 1 0 0 0 0 0 0 -0 -0 -0 -0 -0 -1 -1 -1 -1 -1 -1
9 9 9 9 9 9 8 8 8 8 7 7 7 6 6 6 6 6 6 5 5 5 5 5 5 5 5 4 4 4 4 4 3 3 3 3 3 2 2 2 2 2 2 2 2 2 2 1 1 1 1 0 0 0 0 0 0 -0 -0 -0 -1 -1 -1 -1 -1 -1 -1 -1 -1
9 9 9 9 8 8 8 8 8 7 7 7 6 6 6 6 5 5 5 5 5 5 5 5 5 5 5 4 4 4 3 3 3 3 3 2 2 2 2 2 2 2 2 2 2 2 2 1 1 0 0 0 0 0 0 0 -0 -0 -0 -1 -1 -1 -1 -1 -1 -1 -1 -1 -1
9 8 8 8 8 8 8 7 7 7 6 6 6 6 5 5 5 5 5 5 5 5 5 5 5 5 4 4 4 3 3 3 3 3 2 2 2 2 2 2 2 2 2 2 2 1 1 1 0 0 0 0 0 0 -0 -0 -0 -1 -1 -1 -1 -1 -1 -1 -1 -1 -1 -1 -1
8 8 8 8 8 7 7 7 7 6 6 6 5 5 5 5 5 5 5 5 5 5 5 5 4 4 4 4 4 3 3 3 3 3 2 2 2 2 2 2 2 2 1 1 1 1 0 0 0 0 0 0 0 -0 -0 -0 -1 -1 -1 -1 -1 -2 -2 -2 -1 -1 -1 -1 -2
8 8 7 7 7 7 7 7 6 6 6 5 5 5 5 5 5 5 4 4 4 4 4 4 4 4 4 3 3 3 3 3 3 3 2 2 2 2 2 2 1 1 1 1 1 0 0 0 0 0 0 0 -0 -0 -0 -0 -1 -1 -1 -2 -2 -2 -2 -2 -2 -2 -2 -2 -2
7 7 7 7 7 7 6 6 6 6 5 5 5 5 5 4 4 4 4 4 4 4 4 4 4 4 3 3 3 3 3 3 2 2 2 2 2 2 2 1 1 1 1 1 1 0 -0 0 0 0 0 -0 -0 -0 -0 -1 -1 -1 -2 -2 -2 -2 -2 -2 -2 -2 -2 -2 -2
7 7 7 7 6 6 6 6 6 5 5 5 5 4 4 4 4 4 4 4 4 4 4 4 4 3 3 3 3 3 2 2 2 2 2 2 2 1 1 1 1 1 1 1 0 -0 -0 -0 0 0 -0 -0 -0 -0 -1 -1 -1 -1 -2 -2 -2 -2 -2 -2 -2 -2 -2 -2 -2
7 6 6 6 6 6 6 5 5 5 5 5 4 4 4 4 4 4 4 4 4 4 4 4 3 3 3 3 2 2 2 2 2 2 2 1 1 1 1 1 1 0 0 0 0 -0 -0 -0 -0 -0 -0 -0 -0 -0 -1 -1 -1 -2 -2 -2 -2 -2 -3 -3 -3 -3 -3 -3 -3
6 6 6 6 6 5 5 5 5 5 4 4 4 4 4 4 4 4 4 4 4 4 4 3 3 3 3 3 2 2 2 2 1 1 1 1 1 1 1 0 0 0 0 0 -0 -0 -1 -1 -0 -0 -0 -0 -0 -1 -1 -1 -1 -2 -2 -2 -2 -3 -3 -3 -3 -3 -3 -3 -3
6 6 6 6 5 5 5 5 5 4 4 4 4 4 4 4 4 4 4 4 4 4 3 3 3 3 3 2 2 2 2 1 1 1 1 1 1 1 0 0 0 0 -0 -0 -0 -1 -1 -1 -1 -1 -1 -1 -1 -1 -1 -1 -2 -2 -2 -2 -2 -3 -3 -3 -3 -3 -3 -3 -3
6 6 6 5 5 5 4 4 4 4 4 4 4 4 4 4 4 4 4 4 4 3 3 3 3 3 2 2 2 2 1 1 1 1 1 1 0 0 0 0 -0 -0 -0 -0 -1 -1 -1 -1 -1 -1 -1 -1 -1 -1 -1 -1 -2 -2 -2 -2 -2 -3 -3 -3 -3 -3 -3 -3 -3
6 6 5 5 5 4 4 4 4 4 4 4 4 4 4 4 4 4 4 4 3 3 3 3 3 2 2 2 2 1 1 1 1 1 0 0 0 0 -0 -0 -0 -0 -0 -1 -1 -1 -1 -1 -1 -1 -1 -1 -1 -1 -1 -2 -2 -2 -2 -2 -3 -3 -3 -3 -3 -3 -3 -3 -3
5 5 5 5 4 4 4 4 4 4 4 4 4 4 4 4 4 4 3 3 3 3 3 3 2 2 2 2 1 1 1 1 1 0 0 -0 -0 -0 -0 -0 -0 -1 -1 -1 -1 -1 -1 -1 -1 -1 -1 -1 -1 -1 -2 -2 -2 -2 -2 -2 -3 -3 -3 -3 -3 -3 -3 -3 -3
5 5 5 5 4 4 4 4 4 4 4 4 4 4 4 4 4 3 3 3 3 3 2 2 2 2 2 1 1 1 1 1 0 0 -0 -0 -0 -0 -0 -0 -1 -1 -1 -1 -1 -2 -2 -2 -2 -2 -1 -1 -1 -2 -2 -2 -2 -2 -2 -2 -3 -3 -3 -3 -3 -3 -3 -3 -3
5 5 5 4 4 4 4 3 3 4 4 4 4 4 4 3 3 3 3 3 2 2 2 2 2 1 1 1 1 1 1 0 0 0 -0 -0 -0 -0 -0 -1 -1 -1 -1 -1 -1 -2 -2 -2 -2 -2 -2 -2 -2 -2 -2 -2 -2 -2 -2 -3 -3 -3 -3 -3 -3 -3 -3 -3 -3
5 5 4 4 4 4 3 3 3 4 4 4 4 3 3 3 3 3 3 2 2 2 2 2 1 1 1 1 1 1 0 0 0 -0 -0 -0 -1 -1 -1 -1 -1 -1 -1 -2 -2 -2 -2 -2 -2 -2 -2 -2 -2 -2 -2 -2 -2 -2 -2 -3 -3 -3 -3 -3 -3 -3 -3 -3 -3
5 4 4 4 4 3 3 3 4 4 4 4 3 3 3 3 3 3 2 2 2 2 2 2 1 1 1 1 1 0 0 -0 -0 -0 -0 -1 -1 -1 -1 -1 -1 -1 -2 -2 -2 -2 -2 -2 -2 -2 -2 -2 -2 -2 -2 -2 -2 -2 -2 -3 -3 -3 -3 -3 -3 -3 -3 -3 -3
4 4 4 4 4 3 3 3 4 4 3 3 3 3 3 3 2 2 2 2 2 2 2 1 1 1 1 1 0 0 -0 -0 -0 -1 -1 -1 -1 -1 -1 -1 -2 -2 -2 -2 -2 -2 -3 -3 -2 -2 -2 -2 -2 -2 -2 -2 -2 -2 -2 -3 -3 -3 -3 -3 -3 -3 -4 -4 -3
4 4 4 4 4 3 3 3 3 3 3 3 3 3 2 2 2 2 2 2 2 2 1 1 1 1 1 0 0 0 -0 -0 -1 -1 -1 -1 -1 -1 -2 -2 -2 -2 -2 -2 -2 -3 -3 -3 -3 -2 -2 -2 -2 -2 -2 -2 -2 -2 -2 -2 -2 -3 -3 -3 -3 -4 -4 -4 -4
4 4 4 4 4 3 3 3 3 3 3 3 3 2 2 2 2 2 1 1 1 1 1 1 1 0 0 0 0 0 0 -0 -0 -1 -1 -1 -1 -2 -2 -2 -2 -2 -2 -3 -3 -3 -3 -3 -3 -2 -2 -2 -2 -2 -2 -2 -2 -2 -2 -2 -3 -3 -3 -3 -4 -4 -4 -4 -3
4 4 3 3 3 3 3 3 3 3 3 2 2 2 2 2 2 1 1 1 1 1 1 1 1 0 0 0 -0 -0 -0 -0 -1 -1 -1 -1 -2 -2 -2 -2 -2 -2 -3 -3 -3 -3 -3 -3 -3 -2 -2 -2 -2 -2 -2 -2 -2 -2 -2 -2 -3 -3 -3 -4 -4 -4 -4 -4 -3
Height
762 764 766 767 769 771 773 775 776 778 779 780 781 783 784 786 787 788 789 790 791 792 793 793 794 795 795 796 797 797 798 798 799 799 799 800 800 800 800 800 800 800 799 799 799 799 799 799 799 799 798 798 798 797 797 796 796 796 795 795 794 794 793 793 792 791 791 791 790
762 764 766 767 769 771 773 775 776 778 779 781 782 783 785 786 787 788 789 790 791 792 792 793 794 795 795 796 797 797 798 799 799 799 799 799 800 800 800 799 799 799 799 799 799 799 799 798 798 798 798 797 797 797 796 796 795 795 794 794 793 793 792 792 791 791 790 789 789
762 764 766 767 769 771 773 775 776 778 779 781 782 784 785 786 787 788 789 790 791 792 792 793 794 795 796 796 797 798 798 799 799 799 799 799 799 799 799 799 799 799 799 799 798 798 798 798 798 797 797 796 796 796 796 795 794 794 793 793 792 792 791 791 790 790 789 788 788
763 764 766 768 769 771 773 774 776 778 779 781 782 784 785 786 787 788 789 790 791 792 792 793 794 795 796 796 797 798 798 799 799 799 799 799 799 799 799 799 799 799 798 798 798 798 797 797 797 796 796 796 796 795 795 794 793 793 792 792 791 791 790 790 789 789 788 787 787
763 765 766 768 770 771 773 775 776 777 779 781 782 784 785 786 787 788 789 790 791 792 792 793 794 795 796 796 797 798 798 798 799 799 799 799 799 799 799 798 798 798 798 798 797 797 797 797 796 796 796 795 795 794 794 793 792 792 791 791 791 790 789 789 788 787 787 786 786
763 765 766 768 770 772 773 775 776 778 779 781 782 784 785 786 787 788 789 790 791 792 793 793 794 795 796 796 797 798 798 798 799 799 799 799 798 798 798 798 798 798 797 797 797 797 796 796 796 795 795 794 794 793 793 792 791 791 790 790 789 789 788 788 787 786 786 785 785
763 765 767 768 770 772 773 775 776 778 779 781 782 784 785 786 787 788 789 790 791 792 793 793 794 795 796 796 797 797 798 798 798 798 798 798 798 798 798 798 797 797 797 797 796 796 796 795 795 794 794 793 793 792 792 791 791 790 789 789 788 788 787 786 786 785 785 784 783
764 765 767 769 771 772 774 775 776 778 780 781 783 784 785 786 787 788 789 790 791 792 793 793 794 795 796 796 797 797 798 798 798 798 798 798 798 797 797 797 797 797 796 796 796 795 795 794 794 793 793 792 792 791 791 790 789 789 788 787 787 786 786 786 785 784 784 783 782
764 766 767 769 771 773 774 775 776 778 780 781 783 784 785 786 787 788 789 790 791 792 793 793 794 795 796 796 796 797 797 797 797 797 797 797 797 797 797 797 796 796 796 795 795 795 794 793 793 792 792 791 791 790 790 789 788 787 787 786 786 785 785 785 784 783 783 782 781
764 766 767 770 771 773 774 776 777 778 780 781 783 784 785 786 787 788 789 790 791 792 792 793 794 795 795 796 796 796 797 797 797 797 797 797 796 796 796 796 796 796 795 795 794 794 793 792 792 791 791 790 790 789 788 788 787 786 786 785 785 784 784 784 783 782 782 781 780
764 766 768 770 771 773 775 776 777 779 780 781 783 784 786 786 788 789 789 790 791 792 792 793 794 795 795 796 796 796 796 796 796 796 796 796 796 796 796 796 795 795 794 794 793 793 792 791 791 791 790 789 789 788 787 787 786 786 785 784 784 783 783 782 782 781 781 780 779
764 766 768 770 772 773 775 776 777 779 780 781 783 784 786 786 788 789 789 790 791 791 792 793 794 794 795 795 795 796 796 796 796 796 796 796 796 795 795 795 794 794 793 793 792 792 791 791 790 789 789 788 788 787 786 786 785 785 784 783 783 782 782 781 781 780 780 779 778
765 766 769 771 772 774 775 776 777 778 780 781 783 784 786 786 788 789 789 790 791 791 792 793 793 794 794 795 795 795 795 795 795 795 795 795 795 795 794 794 794 793 793 792 791 791 790 790 789 788 788 787 787 786 786 785 784 784 783 782 782 781 781 780 780 779 778 777 776
765 767 769 771 772 774 775 776 777 779 780 781 783 784 785 786 787 788 789 790 791 791 792 793 793 794 794 794 794 795 795 795 795 795 795 795 794 794 794 793 793 792 792 791 791 790 790 789 788 787 787 786 786 785 785 784 784 783 782 782 781 781 780 779 779 778 777 776 775
766 767 769 771 772 774 775 776 777 779 780 781 783 784 785 786 787 788 789 790 791 791 792 792 793 793 793 794 794 794 794 794 794 794 794 794 794 793 793 792 792 791 791 791 790 789 789 788 787 787 786 786 785 784 784 783 783 782 782 781 781 780 779 778 777 777 776 775 774
766 768 770 771 773 774 775 776 777 779 780 781 782 784 785 786 787 788 789 789 790 791 791 792 792 793 793 793 793 794 794 794 794 794 793 793 793 793 792 792 791 791 790 790 789 788 788 787 787 786 786 785 784 784 783 783 782 782 781 781 780 779 778 777 776 776 775 774 773
766 768 770 771 773 774 776 776 777 779 780 781 782 784 785 786 787 788 788 789 790 791 791 791 792 792 792 793 793 793 793 793 793 793 793 792 792 792 791 791 790 790 789 789 788 787 787 786 786 785 785 784 784 783 782 782 781 781 781 780 779 778 777 776 776 775 774 773 771
767 768 770 772 773 775 776 776 777 779 780 781 782 783 785 786 786 787 788 789 790 790 791 791 791 792 792 792 792 793 793 793 792 792 792 792 791 791 791 790 790 789 788 788 787 787 786 786 785 785 784 784 783 782 782 781 781 780 780 779 778 777 776 776 775 774 773 771 771
767 769 771 772 774 775 776 777 778 779 780 781 782 783 784 785 786 787 788 789 790 790 791 791 791 791 792 792 792 792 792 792 792 792 791 791 791 790 790 789 789 788 788 787 786 786 786 785 784 784 783 783 782 782 781 781 780 779 779 778 777 776 776 775 774 773 772 771 770
767 769 771 772 774 775 776 777 778 779 780 781 782 783 784 785 786 787 788 789 789 790 790 791 791 791 791 791 792 792 792 792 791 791 791 791 790 790 789 789 788 788 787 786 786 785 785 784 784 783 782 782 781 781 780 780 779 778 778 777 776 775 775 774 773 772 771 770 769
768 770 771 773 774 775 776 777 778 779 780 781 782 783 784 785 786 787 788 788 789 790 790 790 791 791 791 791 791 791 791 791 791 791 790 790 790 789 788 788 787 787 786 786 785 785 784 783 783 782 782 781 781 780 780 779 778 777 777 776 775 774 774 773 772 771 770 769 767
769 770 772 773 774 775 776 777 778 779 780 781 782 783 784 785 786 787 787 788 789 789 790 790 790 790 791 791 791 791 791 791 791 790 790 789 789 788 788 787 787 786 786 785 784 784 783 783 782 782 781 781 780 780 779 778 777 776 776 775 774 773 772 772 771 770 769 767 766
769 771 772 773 774 775 776 777 778 779 780 781 782 783 784 785 786 786 787 788 788 789 789 789 790 790 790 790 790 790 790 790 790 790 789 789 788 788 787 786 786 786 785 784 784 783 782 782 781 781 781 780 780 779 778 777 776 776 775 774 773 772 771 771 770 769 767 766 766
769 771 772 773 774 775 776 777 778 779 780 781 782 783 784 785 786 786 787 788 788 788 789 789 789 790 790 790 790 790 790 790 789 789 789 788 788 787 786 786 785 785 784 784 783 782 782 782 781 781 780 780 779 778 777 776 776 775 774 773 772 771 770 770 769 768 766 766 765
769 771 772 773 774 775 776 777 778 779 781 781 783 783 784 785 786 786 787 787 788 788 788 789 789 789 789 789 789 789 789 789 789 788 788 787 787 786 786 785 785 784 784 783 782 782 782 782 781 781 780 779 778 777 776 776 775 774 773 772 771 770 769 768 767 766 766 765 764
770 771 772 773 774 775 776 777 779 780 781 782 783 784 784 785 786 786 787 787 787 788 788 788 789 789 789 789 789 789 789 788 788 788 787 786 786 786 785 785 784 783 783 782 782 782 781 781 781 780 779 778 777 776 776 775 774 773 772 771 770 769 768 767 766 765 764 764 763
770 771 772 773 774 776 777 778 779 780 781 782 783 784 784 785 786 786 786 787 787 788 788 788 788 789 789 789 788 788 788 788 787 787 786 786 785 785 784 784 783 783 782 782 781 781 781 780 780 779 778 777 776 776 775 774 773 772 771 770 770 769 767 766 765 764 763 762 761
770 771 772 773 775 776 777 778 779 780 781 782 783 783 784 785 786 786 786 787 787 787 788 788 788 788 788 788 788 788 788 787 787 786 786 785 785 784 784 783 783 782 781 781 781 780 780 779 779 778 777 777 776 775 774 773 772 771 770 769 769 768 766 765 764 763 762 761 760
770 771 772 774 775 776 777 778 779 780 781 782 783 783 784 785 785 786 786 786 787 787 787 788 788 788 788 788 787 787 787 787 786 786 785 785 784 784 783 783 782 781 781 781 780 779 779 778 778 777 777 776 775 774 773 772 771 770 769 768 768 766 766 764 763 762 761 759 758
770 771 772 774 775 776 777 778 780 781 781 782 783 783 784 784 785 785 786 786 787 787 787 787 787 787 787 787 787 787 786 786 786 785 785 784 784 783 782 782 781 781 780 780 779 779 778 777 777 776 776 775 774 773 772 771 770 769 768 767 766 766 764 763 762 761 759 758 757
771 771 773 774 775 776 778 779 780 781 781 782 783 783 784 784 785 785 786 786 786 786 787 787 787 787 787 787 786 786 786 786 785 785 784 783 783 782 782 781 781 780 779 779 778 778 777 777 776 776 775 774 773 772 771 770 769 768 767 766 766 764 763 762 761 759 758 757 756
771 772 773 774 776 777 778 779 780 781 781 782 783 783 784 784 785 785 786 786 786 786 786 786 786 786 786 786 786 786 785 785 784 784 783 783 782 781 781 781 780 779 778 778 777 777 776 776 775 775 774 773 772 771 770 769 768 767 766 766 765 763 762 761 759 758 757 756 755
771 772 774 775 776 777 778 779 780 781 781 782 782 783 783 784 785 785 785 786 786 786 786 786 786 786 786 786 785 785 784 784 784 783 783 782 781 781 780 780 779 778 778 777 777 776 776 775 774 774 773 772 771 770 769 768 767 766 765 764 763 762 761 760 758 757 756 755 754
771 773 774 775 776 778 779 780 781 781 781 782 782 783 783 784 784 785 785 785 785 786 786 786 786 786 785 785 785 784 784 783 783 783 782 781 781 780 780 779 778 778 777 776 776 775 775 774 773 772 772 771 770 769 768 767 766 765 764 763 762 761 760 758 757 756 755 753 752
772 773 775 776 777 778 779 780 781 781 781 782 782 783 783 784 784 784 785 785 785 785 785 785 785 785 785 784 784 783 783 783 782 782 781 781 780 779 779 778 777 777 776 776 775 775 774 773 772 771 771 770 768 767 766 766 765 764 763 762 761 760 758 757 756 754 753 752 751
772 774 775 776 777 778 779 780 781 781 781 782 783 783 783 784 784 784 785 785 785 785 785 785 785 784 784 784 783 783 782 782 782 781 781 780 779 778 778 777 777 776 776 775 774 774 773 772 771 770 769 768 767 766 765 764 763 762 761 760 759 758 756 755 754 753 752 751 750
773 774 775 776 777 778 779 780 781 781 781 782 782 783 783 783 784 784 784 785 785 785 784 784 784 784 783 783 783 782 782 782 781 781 780 779 778 778 777 776 776 776 775 774 774 773 772 771 770 769 768 767 766 765 764 763 762 761 760 759 758 756 755 754 752 752 751 750 749
774 775 776 776 777 778 779 780 780 781 781 782 782 783 783 783 784 784 784 784 784 784 784 783 783 783 783 782 782 782 782 781 781 780 779 779 778 777 776 776 775 775 774 774 773 772 771 770 769 768 767 766 765 764 763 762 761 760 759 758 756 755 753 752 751 751 750 749 748
774 775 776 776 777 778 779 780 780 781 781 782 782 782 783 783 784 784 784 784 783 783 783 783 783 782 782 782 782 781 781 781 780 779 779 778 777 777 776 775 775 774 773 773 772 771 770 769 768 768 767 766 765 763 762 761 760 759 757 756 755 753 752 751 751 750 749 748 747
774 775 776 777 777 778 779 780 780 781 781 781 782 782 783 783 783 783 783 783 783 783 782 782 782 782 782 781 781 781 780 780 779 779 778 777 777 776 776 775 774 773 773 772 771 770 769 768 768 767 766 765 764 762 761 760 759 758 756 755 753 752 751 750 749 749 747 746 745
775 776 776 777 778 778 779 779 780 781 781 781 782 782 783 783 783 783 783 783 782 782 782 782 782 782 781 781 781 780 779 779 779 778 777 777 776 776 775 774 773 772 772 771 770 769 769 768 767 766 765 764 763 761 761 759 758 756 755 753 752 751 750 749 748 747 746 745 743
Wind_Speed
37 36 34 33 32 30 29 27 26 24 23 21 19 17 15 14 13 12 10 9 8 8 7 7 6 6 5 4 3 2 1 1 0 0 1 1 1 1 2 2 3 4 4 5 6 6 7 8 8 9 9 9 9 10 10 10 11 11 12 13 13 14 14 15 15 15 15 14 14
36 35 33 32 31 29 28 27 25 24 22 20 18 16 14 13 13 12 11 9 8 7 7 7 6 6 5 4 3 2 1 1 1 1 1 1 1 1 2 2 3 4 5 5 6 7 8 8 9 9 9 10 10 10 10 11 11 12 13 13 14 14 15 15 15 15 15 15 15
35 34 33 31 30 29 28 27 25 23 21 19 17 15 14 13 12 11 10 9 8 7 7 7 6 6 5 4 3 2 2 1 1 1 1 1 1 2 2 3 3 4 5 6 6 7 8 8 9 9 10 10 10 10 11 12 12 13 13 14 14 15 15 15 15 15 15 15 15
34 33 32 31 29 28 27 26 24 23 21 19 17 15 14 12 11 10 10 9 9 8 7 7 6 6 5 4 3 2 2 2 2 1 1 1 1 2 2 3 4 5 5 6 7 7 8 9 9 10 10 10 11 11 12 12 13 13 14 14 15 15 15 15 15 15 15 15 15
33 32 31 29 28 27 26 25 23 22 20 18 17 15 14 12 11 10 10 10 9 8 7 7 6 5 5 4 3 3 2 2 2 2 2 1 1 2 3 4 4 5 6 7 7 8 8 9 10 10 11 11 11 12 13 13 14 14 15 15 15 15 15 15 15 15 15 15 16
32 31 29 28 27 26 25 23 22 21 19 17 16 15 14 13 11 11 10 10 9 8 7 7 6 5 4 4 3 3 3 2 2 2 2 1 2 2 3 4 5 6 6 7 8 8 9 10 10 11 11 12 12 13 13 14 15 15 16 16 16 16 16 15 15 15 15 16 16
31 30 29 27 26 25 24 23 21 20 18 17 16 15 14 13 12 11 10 9 9 8 7 7 6 5 4 3 3 3 3 2 2 2 2 2 2 3 4 4 5 6 7 8 8 9 10 11 11 12 12 13 13 13 14 15 15 16 16 16 16 16 15 15 15 15 16 17 17
30 29 28 27 25 24 23 22 21 19 18 16 15 14 13 12 12 11 10 9 9 8 7 6 5 4 4 3 3 3 3 2 2 2 2 2 3 4 4 5 6 7 8 9 9 10 11 12 12 13 13 14 14 14 15 16 16 16 17 17 17 16 15 15 15 16 16 17 18
29 28 27 26 25 24 23 22 20 19 17 16 15 14 13 12 11 10 10 9 8 7 7 6 5 4 3 3 3 3 2 2 2 2 2 3 4 4 5 6 7 8 9 10 10 11 12 12 13 13 14 14 15 15 16 16 17 17 17 17 17 16 15 15 15 16 17 17 18
29 28 27 26 25 24 22 21 19 18 17 17 15 14 13 12 11 10 9 8 8 7 6 5 4 4 3 3 3 2 2 2 2 2 3 3 4 5 6 7 8 9 10 10 11 12 13 13 14 14 14 15 16 16 16 17 17 16 16 16 16 16 16 16 16 17 18 18 19
29 28 26 25 25 24 22 21 20 19 18 17 16 14 13 12 11 10 9 8 8 7 6 5 4 3 3 3 3 2 2 2 2 3 3 4 5 6 7 8 9 10 10 11 12 13 13 14 15 15 16 16 16 17 17 17 16 16 16 16 16 17 17 17 17 18 18 19 19
29 27 26 25 24 23 22 22 21 19 18 17 16 14 13 12 11 10 9 8 7 7 6 5 4 3 3 3 2 2 2 2 2 3 4 5 6 7 8 9 10 11 11 12 13 13 14 15 16 16 17 17 17 17 16 16 16 16 16 16 17 18 18 19 19 19 19 19 20
28 27 26 25 24 23 22 22 21 19 18 17 16 15 13 12 11 10 9 8 7 6 5 4 4 3 3 2 2 2 2 2 3 4 5 6 7 8 9 10 11 11 12 13 13 14 14 15 16 17 17 17 17 16 16 16 16 16 17 17 18 19 19 20 20 20 20 20 20
28 27 27 25 24 23 22 22 21 20 18 17 16 14 13 12 11 9 8 7 7 6 5 4 3 3 2 2 1 1 2 3 4 5 6 7 8 9 10 11 11 12 12 13 14 14 15 16 16 16 17 17 16 16 15 15 15 16 17 18 19 20 20 20 20 20 20 21 21
28 28 26 25 24 23 22 22 21 20 18 17 15 14 13 12 10 9 8 7 6 5 5 4 3 3 2 2 1 2 3 4 5 6 7 8 9 10 11 11 12 13 13 14 14 15 15 16 16 16 16 16 16 15 15 15 16 17 17 18 19 20 21 21 21 21 21 21 22
29 27 26 25 24 23 22 22 21 20 18 17 15 14 12 11 10 9 7 7 6 5 5 4 3 2 2 1 2 3 4 5 6 7 8 9 10 10 11 12 13 13 14 15 15 15 16 16 15 15 15 15 15 15 16 16 17 17 18 19 19 20 21 21 21 21 21 21 22
28 27 25 24 24 23 22 21 20 19 18 16 15 13 12 11 10 9 7 6 6 5 4 4 3 2 1 1 2 3 4 5 7 8 9 9 10 11 12 12 13 14 15 15 16 16 16 16 15 14 14 14 15 15 16 17 18 18 19 19 20 20 21 21 21 21 21 22 22
28 26 25 24 23 22 21 20 19 18 17 16 15 13 12 11 10 8 7 6 5 5 4 3 2 2 1 1 2 4 5 6 7 8 9 10 10 11 12 12 13 14 15 15 16 16 16 15 15 14 14 14 15 16 17 18 18 19 19 20 20 20 20 20 21 21 21 22 22
27 26 24 23 22 21 20 19 19 18 17 15 14 13 12 10 9 8 7 6 5 4 3 3 2 1 1 2 3 4 6 7 7 8 9 10 10 11 12 12 13 14 15 15 15 16 15 15 14 14 15 15 16 17 17 18 19 19 20 20 20 20 20 20 20 20 21 21 21
26 25 24 23 21 20 20 19 18 17 16 15 14 13 11 10 8 8 7 6 5 4 3 2 1 0 1 2 4 5 6 7 8 8 9 9 10 11 12 13 13 14 14 15 15 15 15 15 14 15 15 16 17 18 18 19 19 20 20 20 20 20 20 20 20 20 20 20 20
25 24 23 22 21 20 19 18 17 16 15 14 13 12 11 10 8 7 6 5 4 3 2 1 0 1 2 3 4 5 6 7 7 8 8 9 10 11 12 13 13 14 14 15 15 15 15 15 15 15 16 17 17 18 19 19 20 20 20 20 19 19 20 20 20 20 20 19 18
25 23 22 21 20 19 19 18 17 16 15 14 12 11 10 9 8 7 6 5 4 3 2 1 0 2 3 4 5 6 6 7 7 8 8 9 10 11 12 13 14 14 15 15 16 16 15 15 15 16 16 17 17 18 19 19 20 20 20 19 19 20 20 20 20 20 19 18 16
24 23 22 21 20 19 18 17 16 15 14 13 12 11 10 9 8 7 5 4 3 2 1 0 1 3 4 5 5 6 6 7 7 7 8 9 10 11 12 13 14 14 15 16 16 16 16 15 16 16 16 17 17 18 19 19 19 19 19 19 20 21 21 21 20 19 18 16 15
24 22 21 20 19 18 17 17 16 15 14 13 12 10 9 8 7 6 5 4 3 2 1 1 2 3 4 5 6 6 7 7 8 8 9 10 10 11 12 13 14 15 15 16 16 15 14 14 15 16 16 16 17 18 18 19 18 18 19 20 21 22 22 21 20 19 17 16 14
23 22 21 20 19 18 17 16 16 15 14 12 11 10 9 8 7 6 5 4 3 2 1 1 2 3 4 4 5 6 7 8 9 9 10 11 11 12 13 14 14 15 16 16 16 14 13 13 14 15 16 16 17 18 18 18 18 18 19 20 22 23 23 22 20 19 17 15 15
23 22 20 19 18 17 17 16 15 14 13 12 11 9 8 7 6 5 4 3 2 1 1 1 2 3 3 4 5 6 7 8 9 10 11 12 12 13 14 14 15 16 16 16 15 14 13 14 14 14 15 16 17 18 18 18 18 18 19 21 22 22 23 22 21 19 18 16 16
22 21 20 19 18 17 17 16 15 14 13 11 10 9 8 7 6 5 4 3 2 1 0 1 2 3 4 4 5 6 7 8 9 10 11 12 13 14 14 15 15 16 16 16 15 14 14 14 14 15 15 16 17 18 18 18 18 18 20 21 22 22 22 22 21 21 20 19 18
22 21 20 19 18 17 16 15 14 13 12 10 9 8 7 6 6 5 4 3 2 1 0 1 2 3 4 5 6 7 8 9 9 10 11 12 13 14 14 15 16 16 16 16 15 14 14 14 15 15 15 16 17 17 17 18 18 19 20 21 22 22 21 21 21 21 21 21 21
22 21 20 19 18 17 16 15 14 12 11 10 9 8 7 6 5 4 3 2 1 0 1 2 3 4 4 5 6 7 8 9 10 11 12 13 13 14 15 15 16 16 16 16 15 14 14 15 15 15 16 16 16 17 17 18 18 19 20 21 21 21 21 21 21 22 22 22 23
21 20 20 19 18 17 15 14 13 11 10 9 8 7 6 5 5 4 3 2 1 0 1 3 3 4 5 6 7 8 9 10 11 11 12 13 14 15 15 15 16 16 16 15 15 14 14 15 15 16 16 16 16 17 17 18 19 20 21 21 21 21 21 22 22 22 23 23 24
21 20 19 18 17 16 15 13 12 10 9 8 7 7 6 5 4 3 2 1 0 1 2 3 4 5 6 7 8 9 10 10 11 12 13 14 15 15 15 16 16 16 16 15 15 14 15 15 16 16 16 17 16 17 18 19 20 20 20 21 21 21 22 22 23 23 23 24 24
20 19 19 18 17 16 14 12 11 10 9 8 7 6 5 5 4 2 1 1 1 2 3 3 4 6 7 8 9 9 10 11 12 13 13 14 15 15 16 16 16 16 15 15 14 15 15 15 16 16 17 17 17 17 18 19 20 20 20 21 21 22 22 23 23 24 24 24 25
19 19 18 17 16 15 13 12 10 9 8 7 7 6 5 4 3 2 1 1 2 3 4 5 6 7 8 9 10 11 11 12 13 13 14 14 15 15 16 16 15 15 15 15 14 15 15 16 16 17 17 17 17 18 19 20 20 20 21 21 21 22 22 23 24 24 25 25 24
19 18 17 16 15 14 13 11 10 9 8 7 7 6 5 4 3 2 1 2 2 3 4 5 6 7 9 10 11 11 12 13 13 14 14 14 15 15 16 16 15 15 15 14 14 15 15 16 17 17 18 18 18 19 20 20 21 20 20 21 21 22 23 24 24 25 24 24 23
18 17 16 15 14 13 12 11 9 8 8 7 6 5 4 3 2 2 2 2 3 4 5 5 7 7 9 10 11 12 13 13 14 14 14 15 15 15 16 16 15 15 15 14 15 15 16 16 17 18 18 18 19 19 20 20 20 20 20 21 22 23 24 24 25 24 23 21 20
16 16 16 15 13 12 11 10 9 8 7 7 6 5 4 3 2 1 2 2 3 4 5 6 7 8 9 10 11 12 13 14 14 14 14 15 15 15 16 16 16 15 15 15 15 15 16 17 17 18 18 19 19 20 20 20 20 20 20 21 22 23 25 25 24 22 20 18 18
15 15 14 14 13 12 11 10 9 8 8 7 6 5 4 3 2 2 2 3 4 5 6 7 8 9 10 11 12 12 13 13 14 14 14 14 15 15 15 16 16 16 15 15 15 16 16 17 18 18 19 19 19 20 20 20 20 19 20 21 23 24 25 24 22 19 16 16 17
14 13 13 13 12 12 11 10 9 8 7 7 5 4 3 2 2 2 3 4 5 7 8 9 10 10 11 12 12 12 12 13 13 14 14 14 14 15 15 16 16 16 15 15 16 16 17 17 18 18 19 19 19 19 19 19 19 19 20 22 24 24 23 21 17 15 15 16 18
12 12 12 12 12 12 11 10 9 8 7 6 5 4 3 2 2 3 4 5 6 7 9 9 10 11 11 12 12 12 13 13 13 13 13 14 14 14 15 15 16 16 16 16 16 17 17 18 18 19 19 19 19 19 19 19 19 20 21 23 24 23 20 16 14 14 17 20 21
12 11 11 12 12 11 10 10 9 7 6 5 4 3 3 2 3 4 5 6 7 8 9 9 10 10 11 12 12 13 13 13 13 13 13 13 14 14 14 15 16 16 16 16 16 17 18 18 18 19 19 19 19 19 19 19 19 21 22 23 23 20 16 14 14 16 20 24 26
12 12 12 11 11 11 10 9 8 7 5 4 4 3 3 3 4 4 5 6 7 8 9 9 10 10 11 12 13 13 14 14 14 13 13 13 14 14 15 15 16 16 16 17 17 18 18 18 18 19 19 19 19 19 19 19 20 21 23 23 20 17 14 15 17 20 23 25 27
Wind_Direction
164 163 162 162 161 160 159 158 157 156 155 153 149 147 148 148 144 143 142 143 141 140 137 136 134 132 131 131 131 132 131 135 176 292 296 303 308 316 317 318 318 318 318 318 317 317 318 318 320 322 325 327 331 334 337 338 339 340 341 342 342 342 341 342 342 342 341 340 339
164 164 163 162 161 160 158 158 157 156 154 151 149 149 151 151 148 145 144 143 142 140 138 135 134 133 133 134 136 139 146 163 205 240 255 266 279 294 303 308 310 312 312 314 314 315 316 317 319 321 323 325 329 332 334 335 336 337 338 338 339 339 339 340 340 339 339 337 336
165 164 163 162 161 160 159 158 158 156 154 151 151 152 153 152 150 147 145 144 142 140 137 134 135 135 136 138 144 152 165 182 204 220 235 248 267 286 297 304 308 310 311 311 313 314 316 317 319 320 322 325 327 330 333 333 334 334 335 336 336 336 337 337 338 337 336 335 334
166 165 164 163 162 161 159 158 156 154 152 151 151 151 151 151 150 149 147 145 142 138 136 135 136 138 140 144 151 164 180 195 206 217 229 244 267 286 299 305 309 310 312 312 314 315 316 318 320 322 323 325 328 331 332 332 332 332 332 332 333 333 334 334 335 335 334 333 331
167 166 165 164 163 161 159 157 155 152 152 152 152 151 151 151 151 150 148 145 141 137 136 137 138 140 143 150 160 173 187 199 208 220 231 251 275 294 303 306 309 312 313 313 314 316 316 319 321 323 324 326 329 330 331 330 330 329 329 329 331 331 332 333 333 333 332 330 329
168 167 165 164 163 161 159 156 154 152 153 154 154 153 152 152 152 151 147 143 140 139 138 139 140 142 147 156 168 183 196 206 214 223 242 263 287 300 306 310 312 313 314 315 316 316 318 320 322 324 325 326 329 330 330 329 329 328 327 328 329 330 331 332 333 332 331 329 327
169 167 166 165 164 162 158 155 153 153 154 156 156 156 154 153 152 149 147 144 142 140 140 140 142 144 150 161 177 191 203 211 221 232 254 280 298 304 311 314 315 315 316 317 318 319 320 321 324 325 326 326 329 330 330 330 329 328 327 327 328 329 331 332 333 332 330 328 327
169 168 167 166 165 162 158 155 154 154 155 156 156 155 154 153 151 149 147 144 142 141 142 143 144 148 156 168 185 197 207 214 228 244 268 289 302 308 311 314 316 318 318 319 320 321 323 323 325 326 327 327 329 330 330 330 329 328 327 328 329 330 332 333 333 332 330 328 326
168 167 167 166 164 161 158 156 156 155 154 154 153 152 151 151 150 148 146 144 143 145 146 146 148 154 165 180 192 202 211 219 236 262 284 296 305 310 312 314 316 319 320 321 322 323 324 325 326 327 327 328 330 330 330 330 330 329 329 329 330 331 332 333 333 332 330 328 325
168 167 166 165 163 161 157 155 155 154 152 151 149 149 148 147 147 146 145 145 147 148 148 149 153 162 177 191 202 208 216 231 254 283 298 305 310 312 314 316 318 320 322 323 324 325 325 325 326 327 328 329 330 331 331 331 331 331 331 331 332 332 333 333 333 332 330 328 325
167 166 165 163 161 159 156 153 152 152 151 148 147 146 145 145 145 145 146 149 150 149 149 153 160 173 187 199 207 214 227 252 279 297 307 312 314 315 317 318 319 321 323 325 325 326 327 327 327 328 328 330 331 332 332 332 332 332 333 333 333 333 333 333 333 332 330 327 325
166 164 163 161 159 158 155 153 151 150 149 147 146 145 145 145 146 147 148 150 149 150 152 159 168 182 195 203 210 223 245 275 296 306 311 315 316 317 318 319 320 322 324 325 327 327 328 328 328 329 330 331 332 333 334 335 335 335 335 335 335 334 334 333 333 331 329 327 324
163 161 159 158 158 157 155 152 151 149 148 146 146 145 146 146 147 148 149 150 150 153 158 165 175 186 197 205 216 240 268 289 304 310 313 314 316 317 318 320 321 323 325 327 328 329 330 330 331 332 332 333 333 335 336 337 337 337 337 336 335 334 333 332 331 330 328 326 323
159 158 157 157 157 157 155 152 150 148 146 145 146 146 147 147 147 148 150 150 153 157 162 169 180 189 198 210 233 264 288 300 307 311 314 315 315 317 319 321 322 324 326 328 329 330 332 333 334 334 335 335 335 336 338 339 339 339 338 336 335 333 332 331 330 329 327 325 323
156 156 156 157 157 157 155 151 148 146 146 145 146 148 148 147 148 149 151 153 155 160 167 173 178 187 202 223 259 288 299 306 310 312 314 316 317 319 321 323 324 325 327 328 330 332 334 336 336 337 337 337 338 338 339 340 340 338 337 335 333 331 330 329 329 327 326 324 322
154 155 156 157 157 156 153 150 147 146 145 145 147 148 148 147 148 150 152 155 159 165 170 174 177 183 201 238 276 295 305 308 310 313 316 318 320 322 324 325 326 327 328 329 331 333 335 337 338 339 340 340 340 341 341 341 339 337 335 333 332 330 329 328 328 327 325 324 322
154 155 157 158 157 155 152 149 147 146 146 146 147 148 149 149 150 152 154 156 161 165 169 173 177 183 204 255 288 301 307 310 313 317 320 321 324 325 327 327 328 329 329 331 332 334 336 338 339 341 342 342 342 342 342 340 338 336 334 332 331 329 328 328 327 326 325 323 322
154 156 157 158 156 154 151 148 147 146 146 146 147 148 149 151 152 152 155 157 161 164 165 166 172 185 224 283 304 309 312 315 319 322 324 325 326 327 328 329 329 330 331 332 334 336 337 338 340 342 344 344 344 343 341 339 336 334 332 331 330 329 328 327 326 325 324 323 321
155 156 156 156 155 152 150 148 147 146 146 147 148 148 149 150 152 154 155 158 160 162 161 160 162 185 259 300 312 316 318 321 325 326 327 327 327 328 328 329 331 332 333 334 336 337 338 340 342 344 346 346 344 342 340 337 334 332 331 330 329 329 328 327 326 325 324 322 321
155 155 155 155 153 151 149 148 147 147 147 148 148 148 147 149 152 154 153 153 156 159 159 156 157 198 304 311 318 322 324 326 328 330 330 329 329 330 330 331 332 333 334 336 337 338 340 342 345 347 348 346 343 340 337 335 333 331 330 330 329 329 328 327 327 325 324 322 321
154 154 154 154 152 150 149 148 148 147 147 147 147 146 146 148 151 151 150 148 151 153 155 158 159 332 328 325 327 329 331 331 331 332 331 331 332 333 333 333 334 334 335 336 338 340 342 346 348 349 348 345 341 337 335 333 331 331 330 329 329 328 328 327 327 326 324 323 321
153 153 153 152 152 150 149 148 148 147 146 145 145 145 145 147 147 147 146 146 146 148 150 146 331 332 330 329 331 333 334 334 333 333 332 333 335 335 335 335 335 335 336 337 339 342 346 349 350 349 345 341 337 335 333 332 331 330 329 329 328 328 328 327 327 326 325 323 321
152 152 152 151 151 150 148 147 147 145 144 143 143 144 144 144 144 143 142 142 142 141 137 42 339 332 330 329 330 331 332 333 332 333 334 335 337 338 337 337 337 337 338 340 342 346 349 350 347 344 340 337 334 333 332 331 330 329 329 329 329 329 329 328 328 327 326 324 322
152 152 151 151 150 149 147 147 145 144 142 141 141 143 143 142 141 140 138 138 137 132 105 1 339 334 331 331 330 329 328 328 330 331 334 336 338 339 339 339 339 340 340 341 346 350 351 345 341 338 336 334 333 332 331 329 329 329 329 331 331 331 330 329 328 328 327 325 323
152 152 151 150 149 148 147 146 145 143 141 140 141 141 140 138 137 137 137 136 133 123 74 358 338 333 333 334 333 330 327 327 329 332 334 337 339 340 340 341 341 341 341 343 347 350 346 338 336 334 333 332 332 330 329 328 327 328 330 332 333 332 331 330 329 329 328 326 325
152 151 150 149 148 147 146 145 144 142 140 140 140 139 138 136 136 137 137 135 130 115 47 346 336 334 336 337 336 334 332 332 333 335 336 338 339 340 340 341 341 341 342 343 347 347 342 337 335 334 333 332 331 329 328 327 326 328 330 332 334 334 332 331 330 329 328 326 325
152 151 149 149 148 146 145 144 143 141 140 140 139 138 137 137 138 140 139 135 128 110 16 335 338 339 338 338 338 339 340 340 340 340 340 340 340 340 341 341 342 342 342 343 345 344 340 336 335 334 333 332 330 328 326 325 326 328 331 333 334 334 332 330 328 327 326 325 323
152 150 149 148 147 145 144 143 142 140 139 140 140 139 139 139 141 142 141 138 131 124 353 345 341 341 340 340 342 344 345 345 344 344 342 341 341 341 341 342 342 341 341 342 343 341 337 335 334 333 332 330 328 326 324 324 325 328 331 332 333 333 331 329 326 325 324 323 322
151 150 149 147 145 144 143 142 141 140 141 141 142 141 142 143 144 144 144 145 152 153 11 359 347 343 344 346 347 348 349 349 348 345 343 342 341 341 342 341 341 340 340 341 342 340 336 334 333 332 330 329 326 324 322 323 325 327 330 331 332 331 329 327 325 323 322 321 320
151 150 148 146 144 143 142 142 142 142 143 144 144 144 145 146 146 148 150 158 164 22 357 352 348 347 348 349 349 351 352 352 349 346 344 342 341 341 340 341 341 340 339 340 341 339 335 333 331 330 328 327 325 322 321 322 324 326 328 329 330 329 327 325 323 322 320 319 319
151 150 148 146 144 143 143 143 144 144 145 146 146 146 147 146 145 147 151 148 66 7 353 349 348 349 350 350 350 352 353 352 350 348 346 343 341 340 339 339 340 339 339 340 340 338 334 331 330 328 326 325 323 321 320 322 324 325 327 327 327 327 325 323 321 320 318 318 317
151 150 148 146 144 143 144 145 146 147 147 147 148 147 146 144 144 145 141 96 26 7 357 351 348 348 349 350 352 352 352 352 351 349 346 343 341 339 338 339 339 340 340 341 339 336 332 330 328 326 325 324 322 321 320 321 322 323 324 325 325 324 322 320 319 318 317 316 317
151 150 148 146 145 144 145 147 148 148 149 148 147 144 142 142 146 145 121 54 17 5 359 353 351 351 351 351 352 352 352 351 350 348 346 342 340 338 337 338 339 340 340 340 338 334 331 329 327 325 324 323 321 320 320 321 321 322 322 323 322 321 320 318 317 316 316 315 316
151 150 148 147 146 145 146 147 148 149 148 146 143 141 141 143 141 129 93 43 16 4 359 355 355 354 352 350 351 350 350 349 348 346 344 341 339 337 337 338 339 340 340 339 337 334 331 328 326 325 324 323 322 321 320 320 320 320 321 321 320 319 318 316 315 315 315 315 315
151 149 148 147 146 146 146 146 147 147 146 144 141 141 145 147 137 107 66 32 15 6 1 359 355 353 352 350 350 349 348 347 346 344 343 340 338 337 337 337 338 339 339 338 336 334 331 328 326 325 324 323 322 321 320 319 319 319 319 319 319 317 316 315 314 314 314 315 317
151 150 148 147 146 145 145 145 146 146 146 144 141 140 140 137 126 84 40 18 7 2 0 358 354 352 351 351 350 349 348 346 344 343 342 340 339 338 337 337 337 338 338 337 336 334 331 328 326 325 324 323 322 321 320 319 318 318 318 318 317 316 315 314 313 313 314 317 321
151 151 149 147 146 145 145 147 149 148 147 144 140 135 126 114 92 55 18 2 359 357 356 354 353 352 350 349 349 349 347 345 344 343 342 341 340 339 338 337 337 338 338 338 337 335 332 328 327 326 325 323 322 321 320 319 318 318 318 317 315 314 313 312 312 313 316 321 324
150 151 150 148 146 146 146 148 150 149 146 142 136 131 121 103 70 33 9 357 355 354 353 352 353 351 348 346 345 345 345 344 344 343 343 342 342 341 339 338 338 338 338 338 337 335 333 329 327 326 325 324 322 321 320 319 318 317 317 316 314 313 311 310 311 315 321 324 324
148 150 151 149 147 147 147 148 146 143 139 134 130 124 114 89 49 23 8 357 354 352 351 351 351 349 345 342 340 340 340 342 343 343 343 343 343 342 340 338 337 337 338 338 337 336 334 330 327 326 325 324 322 320 319 318 317 317 316 315 313 311 310 310 315 321 325 325 324
146 149 150 149 148 148 148 145 140 136 133 129 120 109 89 58 32 17 6 359 353 349 347 347 346 344 342 339 337 336 336 338 340 342 343 343 342 342 340 338 337 337 337 338 338 338 335 330 327 326 325 324 322 321 319 318 317 317 315 314 311 309 310 315 323 326 326 326 325
144 147 148 147 147 147 146 141 136 134 132 125 108 86 60 35 20 10 2 357 351 347 344 342 341 340 338 337 336 334 335 336 338 340 341 341 342 342 341 339 338 338 338 339 339 339 335 330 327 326 325 324 323 322 320 319 318 316 314 311 309 310 316 324 328 328 328 326 324